Probability
0 0 0 0 0 0 0 0 1 3 5 7 7 8 9 8 7 10 15 20 27 34 35 33 31 30 28 28 30 31 30 27 25 23 23 25 27 30 32 32 32 33 32 30
0 0 0 0 0 0 0 0 0 2 5 7 7 7 8 8 9 13 18 24 29 34 35 34 33 32 29 27 28 31 32 30 27 24 23 24 25 28 31 31 31 33 32 30
0 0 0 0 0 0 1 1 1 4 7 9 9 9 9 10 12 19 24 29 33 35 35 34 33 33 30 27 28 30 33 33 30 27 24 24 25 27 30 30 31 32 32 30
0 0 0 0 0 1 2 2 3 6 10 12 12 12 12 12 17 24 29 32 33 33 32 30 30 31 31 30 30 30 31 32 31 29 28 28 30 32 33 32 32 32 32 30
0 0 0 0 1 2 3 3 4 7 10 13 14 14 14 16 21 27 31 32 32 29 28 27 28 31 32 32 32 32 31 32 33 33 32 34 38 40 40 38 36 34 32 30
0 0 0 0 2 3 4 5 6 8 10 14 15 17 19 20 23 27 31 32 30 28 26 28 31 33 34 33 33 34 35 36 38 37 37 38 42 46 45 42 39 36 32 29
0 0 1 1 2 4 6 9 10 11 13 16 20 22 23 22 23 27 29 30 30 30 29 30 32 33 34 35 36 37 38 39 41 41 39 37 40 44 43 41 39 36 32 28
1 2 3 3 2 6 10 12 13 16 18 21 24 24 22 22 25 27 28 28 29 30 30 30 31 32 32 35 38 40 41 41 42 42 38 34 35 38 37 36 35 34 30 28
2 3 4 4 4 7 11 13 15 18 20 22 22 21 19 21 25 27 27 28 28 28 28 29 29 30 30 32 38 42 42 41 41 41 37 33 33 33 33 33 31 30 28 26
6 5 5 5 6 9 10 11 13 17 19 17 16 16 18 22 25 26 26 26 26 26 27 28 30 29 29 31 35 38 38 37 37 37 35 34 32 31 31 30 28 26 24 23
12 12 11 10 10 11 9 8 9 13 14 13 12 14 18 23 25 25 26 25 24 25 26 28 29 29 28 30 33 34 33 33 32 31 30 30 29 27 25 24 22 19 18 17
15 18 18 14 12 10 8 6 6 8 10 10 10 13 19 23 24 25 25 25 24 24 24 25 26 26 26 29 32 32 30 30 29 27 25 25 25 23 19 16 11 8 8 8
15 17 17 14 10 10 10 8 7 6 7 7 9 14 20 23 24 24 24 24 23 23 23 23 23 23 24 27 29 30 28 28 27 26 23 22 22 23 19 13 7 4 2 2
13 14 14 12 11 11 11 10 9 7 7 8 11 15 21 24 25 24 22 22 22 22 21 21 20 20 22 25 27 27 26 26 26 25 23 21 21 23 22 17 13 9 6 3
10 12 13 13 13 13 12 11 10 9 9 11 14 19 24 26 26 25 21 19 20 21 20 19 18 18 21 23 24 24 24 24 23 22 20 19 19 20 20 19 17 15 12 8
8 9 12 13 13 12 12 11 12 13 14 14 17 22 25 26 25 24 21 20 20 20 19 17 17 18 21 23 23 23 22 19 16 15 13 14 16 15 14 14 14 15 14 12
7 9 12 14 14 12 12 13 16 18 18 18 20 22 24 24 24 22 20 19 19 17 16 16 17 18 20 22 21 21 18 13 9 7 7 9 12 12 9 8 9 12 13 12
7 9 13 17 18 15 14 15 18 19 20 21 22 23 24 23 21 19 18 17 16 14 12 13 15 17 18 18 18 16 13 9 5 4 5 7 9 8 6 4 5 9 11 10
7 9 13 17 19 17 15 14 15 18 20 22 24 25 25 23 20 18 16 15 13 11 9 9 12 15 15 14 13 12 10 8 5 5 5 6 6 5 4 4 5 8 10 10
8 10 12 13 14 14 13 11 12 15 19 22 25 26 25 23 21 19 17 14 12 10 7 8 11 12 12 9 8 8 8 8 7 5 4 3 3 3 3 4 7 9 9 10
10 11 11 11 10 9 9 9 10 13 17 20 23 25 24 23 22 20 16 13 11 8 6 7 9 10 8 7 5 6 6 7 7 5 3 1 1 2 3 5 7 8 8 8
11 11 11 10 8 7 8 9 10 12 14 15 17 20 21 21 19 17 13 9 6 4 3 5 6 6 5 5 4 4 5 6 6 5 2 2 3 5 5 5 5 6 6 6
9 9 8 8 7 7 8 8 9 11 12 11 12 16 17 17 15 12 7 5 3 1 1 2 2 2 2 2 2 2 4 6 7 5 4 5 7 8 7 6 5 5 5 5
6 4 4 6 7 8 9 8 9 11 10 10 11 13 14 13 11 7 3 2 1 0 1 1 0 0 0 0 0 1 2 5 6 6 6 7 7 7 7 6 6 6 6 6
3 2 3 4 7 9 8 7 7 7 6 7 9 11 11 9 6 4 2 1 1 1 1 1 0 0 1 1 1 1 2 3 4 4 5 6 4 4 5 5 6 6 6 6
3 4 4 5 5 7 6 4 4 3 3 4 6 8 8 6 4 4 4 3 2 3 2 1 0 0 1 2 1 1 1 1 2 2 2 2 1 1 2 4 5 5 4 4
4 5 6 5 4 4 4 3 2 2 3 3 4 5 5 4 5 6 5 4 3 3 2 1 0 0 1 1 1 0 0 0 1 1 0 0 0 0 1 3 5 5 4 3
Wind_Speed
13 13 12 11 11 10 10 9 9 6 6 2 2 2 4 3 2 3 3 3 3 3 3 2 2 2 1 1 1 1 2 2 2 2 2 2 2 1 1 2 2 2 2 3
14 14 13 13 12 11 10 8 8 7 5 2 1 3 3 3 3 3 3 3 3 3 3 2 2 1 1 1 1 1 2 2 1 1 1 2 1 1 2 2 2 2 2 2
13 12 14 13 10 9 8 8 7 7 2 1 1 1 1 1 2 3 3 3 3 2 2 1 1 2 1 1 1 1 1 1 1 1 1 1 2 2 2 2 2 2 2 2
12 11 15 8 7 7 6 7 5 4 3 2 2 1 1 2 1 1 1 3 3 2 1 1 1 1 1 1 1 1 1 1 1 1 2 2 2 2 2 2 2 2 3 2
10 12 11 8 6 6 6 6 4 4 4 3 2 2 1 2 2 3 2 2 2 1 1 1 0 0 1 1 2 1 1 1 2 2 2 2 2 2 2 2 2 2 2 2
10 12 12 5 3 6 8 5 4 5 4 4 3 4 0 2 2 3 2 2 2 1 1 1 0 1 1 1 1 2 1 1 2 2 3 3 2 2 2 2 2 2 2 2
12 13 8 3 4 7 7 2 4 4 4 4 3 3 1 2 2 3 2 1 1 1 1 1 1 1 1 2 2 2 1 2 2 2 2 2 2 2 2 2 2 2 2 2
10 12 7 3 4 3 3 3 3 3 3 3 3 1 1 1 2 2 1 1 1 1 1 1 1 1 1 2 1 1 1 2 2 2 3 2 2 3 2 2 2 3 3 2
5 3 1 3 3 4 3 4 4 4 4 3 2 0 0 0 1 1 1 1 1 1 1 1 1 1 2 2 1 1 1 2 2 2 2 1 2 3 3 3 3 2 2 2
4 3 3 3 2 3 4 3 4 4 3 2 2 2 1 1 1 0 1 1 1 1 2 1 2 2 2 1 1 2 2 3 2 2 2 1 2 2 2 1 1 1 2 2
6 4 4 4 4 4 4 3 3 2 3 2 1 2 2 1 2 1 1 1 2 2 2 3 3 3 2 1 2 3 3 3 3 2 1 1 1 1 2 1 2 2 2 1
4 3 4 5 4 4 4 4 4 3 3 3 3 3 2 2 2 2 2 2 2 3 3 4 4 3 3 3 3 3 4 3 3 2 2 2 2 1 1 2 2 3 2 2
5 7 6 6 4 4 3 3 4 3 3 3 3 2 2 2 2 3 3 3 3 4 4 4 4 4 4 4 4 4 4 3 3 2 2 2 2 2 2 1 1 2 3 3
5 6 7 7 6 5 4 4 4 3 3 2 2 3 2 3 3 3 3 4 4 4 4 5 5 4 4 4 4 4 4 4 3 3 3 3 3 3 2 2 2 2 3 4
6 6 6 6 6 5 5 5 4 3 3 3 2 3 3 2 2 3 3 3 4 4 4 4 4 4 4 4 4 4 4 3 3 3 3 3 3 3 3 3 2 2 2 3
6 8 7 6 5 6 5 5 5 4 3 4 3 3 2 2 2 2 2 2 3 4 3 3 3 3 3 3 3 4 3 5 4 4 4 3 3 2 2 1 1 2 2 2
5 6 6 6 6 5 5 5 4 4 3 4 3 2 2 2 2 2 2 1 1 2 3 3 3 2 2 3 4 4 3 3 5 4 4 3 2 2 2 1 2 2 1 3
4 5 5 5 6 5 5 4 4 4 3 3 3 2 2 2 2 1 1 2 1 1 2 2 2 2 3 3 3 3 3 3 3 4 3 2 2 2 2 2 2 2 1 3
5 5 5 5 4 4 4 4 4 4 4 3 2 2 2 2 1 2 1 1 2 2 2 1 1 2 3 3 3 3 4 4 4 3 2 2 3 2 2 2 1 1 1 1
4 5 5 5 4 3 3 4 4 4 3 3 2 1 1 1 1 1 1 2 2 1 1 1 2 2 3 2 3 4 4 4 3 2 1 1 2 2 2 1 1 1 1 1
3 4 4 4 4 3 3 3 3 4 3 2 2 1 1 1 0 1 2 2 1 1 1 1 2 2 2 2 3 4 3 3 2 2 2 2 2 2 1 1 1 2 1 1
4 4 4 4 4 3 3 3 3 3 3 2 2 1 1 1 0 1 1 1 1 1 1 2 2 1 1 3 4 4 3 3 2 2 2 3 2 2 1 1 1 1 0 1
4 4 4 3 3 3 3 3 3 3 2 2 2 2 2 2 1 1 1 1 1 0 2 1 1 2 1 3 4 4 4 3 3 3 3 2 1 1 1 1 1 1 1 0
3 4 3 2 2 2 2 2 2 1 1 1 1 1 1 1 1 1 1 0 1 1 1 0 3 1 2 3 3 3 3 3 2 1 1 1 1 1 1 1 1 1 1 1
3 3 3 3 2 1 1 1 1 1 2 1 1 0 1 1 1 1 1 2 2 1 1 1 3 3 3 3 3 2 2 2 1 1 1 1 1 1 0 0 0 0 1 1
2 2 2 2 3 2 2 1 1 2 2 1 1 1 2 1 1 0 1 1 1 1 1 0 1 2 2 2 2 2 2 1 1 0 1 1 1 1 1 0 0 1 1 1
2 2 1 2 2 2 2 2 2 2 2 2 2 1 1 1 0 0 1 1 0 0 1 1 1 1 1 1 1 1 1 1 1 1 1 0 0 0 1 1 1 1 1 1
Wind_Direction
272 277 277 277 273 262 260 272 278 275 273 230 144 127 128 132 150 159 143 137 117 108 101 101 99 105 103 73 139 160 154 173 187 191 209 203 194 194 217 238 243 241 236 245
271 271 277 275 271 269 265 267 271 275 275 264 103 98 116 132 174 166 157 148 122 107 103 104 115 124 117 129 61 141 166 180 195 194 225 214 193 195 213 226 235 242 240 239
269 273 273 266 271 269 274 277 277 281 283 305 71 46 114 160 217 179 164 141 121 117 127 142 156 134 137 128 141 153 180 167 159 197 227 223 219 206 216 217 228 244 251 242
268 265 262 271 287 285 281 285 292 298 301 314 326 357 143 188 191 96 136 125 116 123 147 168 156 135 118 161 148 178 197 206 196 209 223 235 234 221 224 220 233 243 254 241
269 267 262 258 280 295 293 287 310 310 304 316 328 264 130 60 71 91 106 115 124 161 179 161 147 147 148 200 185 199 219 234 225 221 232 234 244 234 230 234 236 235 244 234
258 266 272 273 286 288 277 269 354 3 356 339 308 280 300 56 50 86 94 109 124 145 148 136 124 178 198 232 221 222 232 253 238 231 231 234 243 241 233 229 230 232 237 240
253 258 257 282 298 285 274 319 352 344 340 331 317 314 11 70 81 100 109 127 135 149 149 145 175 188 209 238 241 234 226 246 246 242 234 223 245 243 240 236 229 232 229 233
250 258 254 321 294 310 7 354 337 331 329 335 337 22 87 82 112 135 137 119 136 111 102 139 187 198 230 248 259 258 249 253 257 249 252 231 233 240 231 233 234 231 228 241
275 270 13 359 358 22 30 9 353 340 345 347 327 270 219 152 157 161 150 140 165 166 176 187 215 211 235 268 258 257 263 267 266 255 242 237 240 243 224 222 237 245 241 248
284 266 297 316 349 7 27 1 327 324 329 323 296 272 260 223 187 183 165 184 213 212 209 220 230 233 240 253 267 263 259 264 250 243 234 222 255 266 262 255 258 268 267 274
274 270 289 314 347 356 351 328 319 338 325 305 272 262 247 215 188 207 238 225 218 224 224 225 229 234 243 233 243 263 266 258 250 249 245 230 229 272 273 275 225 231 255 263
290 328 314 305 323 334 328 319 310 304 294 291 274 262 233 218 215 209 228 227 221 222 228 227 228 237 242 242 242 254 258 253 253 252 244 236 222 242 279 225 203 193 198 206
335 332 320 311 308 318 316 301 293 288 283 289 284 267 227 211 213 219 226 230 234 232 228 230 230 235 240 241 244 246 253 251 256 257 255 249 229 221 222 200 202 217 219 206
329 319 309 309 312 311 306 297 299 300 291 281 275 270 240 222 222 222 228 235 239 238 230 230 234 236 237 237 232 233 247 247 248 251 254 249 244 237 224 222 204 212 219 212
315 308 303 303 301 306 307 303 296 290 295 287 269 263 246 224 226 232 237 235 235 238 241 238 241 245 241 230 224 234 244 250 253 253 254 248 246 245 233 235 221 201 177 177
306 306 304 297 302 307 303 293 291 288 286 284 276 262 257 239 231 231 240 242 239 237 243 250 249 247 230 227 233 239 235 232 246 263 263 257 245 245 246 239 235 204 197 168
291 294 295 298 304 303 301 303 304 297 286 286 285 273 248 229 228 224 220 228 244 259 257 249 236 221 225 226 237 250 244 224 233 252 257 259 255 255 253 255 256 251 211 166
274 284 295 303 308 308 309 310 308 309 300 285 279 257 246 236 227 229 211 213 216 243 268 269 229 211 225 231 241 262 262 238 227 245 252 251 251 256 260 242 247 258 226 167
301 308 309 311 313 315 314 313 319 323 320 306 286 264 257 238 238 237 216 218 236 241 255 277 257 238 249 243 249 257 260 252 236 237 251 237 236 245 256 257 249 245 224 181
337 331 329 332 333 337 332 334 332 330 323 320 315 289 270 248 234 229 218 235 247 267 254 244 219 237 256 245 237 256 261 263 259 247 231 239 243 245 260 270 275 274 233 208
346 348 349 344 342 355 358 350 341 334 334 332 327 315 311 320 290 224 220 238 254 309 282 212 229 245 259 266 235 251 258 260 258 251 247 248 241 239 258 291 299 297 300 264
2 0 360 353 357 1 9 5 355 344 349 1 2 4 9 9 348 306 306 310 323 31 248 234 228 213 256 274 258 259 255 256 246 243 251 243 232 219 226 237 256 268 294 308
7 4 2 359 2 6 14 11 5 0 5 13 17 26 9 355 310 271 279 293 292 200 237 245 133 136 217 243 257 264 261 255 251 248 256 257 236 200 208 241 255 225 161 158
1 0 359 359 1 8 358 354 355 357 355 351 3 18 327 314 322 308 316 148 133 156 254 134 139 156 245 260 268 275 279 279 269 262 284 302 286 237 227 241 245 166 127 122
353 348 357 356 343 341 334 305 306 315 294 279 257 189 255 268 273 295 352 53 97 176 270 180 185 207 245 272 281 289 291 306 337 1 332 311 308 301 264 163 125 133 117 107
340 332 1 343 344 337 323 313 297 277 271 278 274 254 250 243 251 250 93 109 135 251 281 357 182 198 234 272 292 304 313 338 31 3 341 338 1 12 352 79 106 107 103 104
339 344 342 336 341 335 327 325 330 323 312 314 307 300 295 318 339 330 17 43 12 269 273 255 231 211 235 269 310 320 319 322 351 356 347 9 45 57 73 83 92 87 85 87